ランキン彗星

P/2021 R5 ( Rankin )

English version
Home page
Updated on October 28, 2021

---------------------------------------------------------------------

・ プロフィール

発見日 2021年9月9日
発見光度 19.3等
発見者 David Rankin (Mt. Lemmon)

・ 写真集

・ 軌道要素

Epoch 2022 Jan. 21.0 TT = JDT 2459600.5                                         
T 2022 Jan.  9.97761 TT                                 Rudenko                 
q   3.3257695            (2000.0)            P               Q                  
n   0.09374491     Peri.  166.93060     +0.89035656     -0.44672396             
a   4.7992229      Node   219.97941     +0.40444691     +0.86464469             
e   0.3070192      Incl.    7.85106     +0.20901651     +0.22984182             
P  10.5                                                                         
From 66 observations 2021 June 22-Sept. 11, mean residual 0".4.                 

・ 光度変化

        m1 = 12.0 + 5 logΔ + 10.0 log r

---------------------------------------------------------------------

軌道要素はM.P.E.C. 2021-R257に掲載されたものです。
光度グラフはComet for Windowsで作成したものです。

---------------------------------------------------------------------

Copyright(C) Seiichi Yoshida (comet@aerith.net). All rights reserved.